Location: Équennes
(49.7375°N, 1.9622°E)
Time: 18:44:10
(UTC+00:00)

Cosmos 2278 - Pass Details

Date: 04 October 2023
Orbit: 838 x 853 km, 71.1° (Epoch: 08 December)

Event Time Altitude Azimuth Distance (km) Brightness Sun altitude
Rises 18:18:24 0° 273° (W) 3,407 9.3 -9.5°
Reaches altitude 10° 18:22:05 10° 297° (WNW) 2,478 7.4 -10.1°
Maximum altitude 18:25:09 15° 331° (NNW) 2,171 6.3 -10.5°
Drops below altitude 10° 18:28:14 10° 4° (N) 2,488 6.2 -11.0°
Sets 18:31:58 0° 28° (NNE) 3,429 6.7 -11.6°
